Wind_Speed
53 47 45 47 46 41 41 42 44 45 40 35 34 37 39 41 42 42 41 39 38 36 34 35 37 37 36 35 35 34 30 29 31 33 33 33 31 27 25 27 29 30 29 29 34 42 44 41 38 39 41 41 41 37 31 29 29 32 33 33 31 31 31 32 32 31 31 29 29 28 28 27 26 27 27 27 26 25 24 23 22 22 21 21 19
52 45 42 45 42 38 41 46 44 40 36 33 32 38 43 44 44 44 42 39 37 36 34 35 36 37 38 37 37 36 33 32 33 34 34 33 31 29 29 28 28 30 30 28 30 36 39 39 38 38 40 41 42 41 37 33 30 31 32 33 34 33 32 34 33 31 30 30 29 30 29 28 27 27 27 27 26 25 24 24 23 23 22 21 20
58 53 49 46 42 43 48 50 46 40 35 36 36 40 46 46 44 43 41 37 36 35 34 34 36 37 38 38 37 36 36 37 39 40 37 33 33 32 30 29 30 31 31 30 29 33 35 35 36 36 37 39 41 42 42 40 38 35 34 34 35 35 33 33 34 32 30 29 29 30 30 30 28 27 27 26 25 25 24 24 24 23 22 21 20
60 59 55 50 45 44 45 45 48 47 44 44 42 41 42 42 40 39 39 37 35 34 34 34 35 37 38 38 36 35 35 37 38 37 34 32 32 31 29 30 33 32 32 32 30 31 34 34 33 33 34 36 38 41 43 43 42 40 38 37 38 36 33 32 32 31 30 29 29 29 30 31 29 28 27 26 25 24 24 24 24 23 23 22 21
58 56 53 51 49 46 41 42 49 49 45 45 45 44 41 37 35 34 35 35 34 33 33 34 35 37 37 37 36 35 34 35 36 36 36 34 32 32 32 33 36 34 34 34 33 31 32 32 32 31 31 34 37 40 43 44 43 40 38 38 38 39 37 34 33 32 32 31 30 30 30 31 30 29 28 27 25 23 23 23 24 24 24 23 23
55 53 50 50 51 49 42 41 46 45 41 40 42 42 40 37 35 34 32 31 30 30 31 32 36 38 37 35 34 33 33 35 38 40 39 36 33 33 31 33 35 34 35 36 34 32 31 31 31 30 30 33 36 39 42 44 43 41 40 39 39 41 41 39 37 35 34 33 32 30 30 30 29 29 29 27 25 23 22 23 24 25 26 26 25
51 48 48 48 47 46 43 40 41 42 40 39 40 40 37 36 36 36 34 31 28 28 29 31 36 38 36 34 32 31 31 33 36 39 40 37 34 30 27 30 32 33 36 37 34 31 30 29 29 29 30 32 35 38 41 42 43 43 42 41 40 42 43 43 42 40 39 37 35 34 32 31 30 29 29 27 26 24 23 23 25 26 27 28 28
47 46 46 46 43 39 41 43 42 39 39 38 39 37 36 35 37 37 34 30 27 26 28 31 35 37 36 34 31 31 31 31 33 35 37 36 33 27 26 29 31 33 35 34 31 30 29 28 28 28 29 30 32 35 37 39 41 42 43 42 41 40 42 43 45 45 44 43 41 39 37 35 32 30 30 29 27 25 23 22 24 27 29 30 30
45 44 43 42 39 34 35 40 37 34 34 35 37 35 32 33 35 34 32 29 27 25 26 30 34 36 35 33 31 32 33 32 32 34 35 34 32 28 25 26 31 33 31 28 27 26 26 25 25 26 26 27 28 30 33 35 37 39 41 42 42 42 41 41 43 44 45 44 43 42 39 36 34 32 32 31 28 25 24 23 23 25 28 30 31
42 41 40 38 36 34 32 34 35 36 33 33 38 34 26 28 31 30 29 28 26 25 25 29 34 36 35 34 32 31 33 34 34 35 36 35 32 30 26 27 34 33 25 22 24 23 22 20 21 22 22 24 25 27 29 31 33 35 37 40 41 43 43 42 42 42 42 42 41 39 37 35 35 34 32 32 29 27 25 24 24 25 26 29 30
39 39 39 36 34 35 36 36 37 40 40 40 43 36 23 26 31 29 29 26 24 24 24 27 34 36 35 34 32 31 32 34 34 35 37 37 33 31 29 30 35 34 25 21 22 22 22 21 21 21 21 22 23 24 27 29 31 33 35 37 39 41 43 44 44 43 41 40 38 36 34 34 34 35 33 31 29 28 27 26 25 25 26 28 30
38 38 38 37 37 39 41 41 40 41 43 44 45 40 30 27 28 27 29 29 26 25 25 26 31 35 35 33 32 31 32 34 36 36 38 39 37 34 33 32 31 30 27 24 23 24 24 24 24 24 24 23 22 23 24 26 29 31 34 36 37 39 41 42 43 43 42 41 38 36 34 34 35 36 34 32 30 30 30 28 27 26 26 29 31
36 36 37 38 40 42 43 43 42 41 42 41 41 41 36 30 24 21 28 33 30 28 27 27 29 32 35 35 33 32 33 35 37 37 39 41 40 38 38 37 34 30 28 27 27 27 27 27 27 28 27 26 25 25 24 25 25 27 31 33 36 38 39 41 42 43 43 42 41 39 36 35 35 36 34 33 32 32 32 30 29 27 26 28 29
34 34 35 37 38 39 40 41 42 41 42 41 40 39 36 32 26 23 29 33 31 28 28 29 30 31 34 36 36 35 35 35 36 37 39 42 42 42 41 41 40 37 33 32 31 30 30 31 31 32 31 30 29 28 26 26 25 25 26 29 32 35 37 39 41 43 44 44 44 43 41 37 35 35 35 34 34 34 33 32 30 28 28 27 27
32 32 33 34 35 36 37 40 41 42 43 42 41 40 36 33 30 28 30 30 29 27 26 29 31 32 36 38 38 38 37 36 37 37 39 41 42 43 42 41 42 41 39 37 35 34 33 34 34 34 34 33 32 29 27 26 25 24 25 26 28 31 34 37 39 41 43 44 46 46 45 42 39 37 36 35 35 34 34 33 31 31 30 30 31
30 31 32 32 33 34 35 37 39 41 43 45 44 42 38 36 33 31 31 30 29 29 30 31 30 30 36 39 39 39 38 37 37 37 38 41 43 43 43 43 43 43 42 41 39 38 37 36 35 34 35 36 35 33 30 29 28 25 25 26 28 29 31 34 38 39 39 41 43 44 45 45 43 41 39 38 37 35 33 32 31 31 32 33 34
30 31 31 32 32 33 34 36 38 39 42 45 47 47 45 41 36 32 32 32 31 33 37 36 31 28 31 37 39 40 40 39 39 38 37 39 42 42 42 42 41 41 44 43 41 41 40 39 37 36 36 36 36 36 35 34 33 30 28 28 28 29 31 32 35 38 39 39 39 41 43 44 44 44 44 43 41 39 36 34 33 32 32 33 34
30 30 31 31 32 32 33 35 36 38 40 43 46 49 49 47 43 39 37 37 34 34 37 38 37 32 29 33 38 38 40 40 40 40 40 40 41 41 41 42 40 40 41 40 40 41 42 42 40 38 37 37 37 37 38 38 37 37 34 32 31 31 32 32 33 36 39 40 40 39 40 42 44 45 45 45 44 43 40 38 37 35 34 34 33
30 30 30 31 32 33 34 36 37 38 39 41 44 46 49 50 50 49 47 42 39 37 36 37 39 38 33 32 35 37 40 41 40 40 41 41 41 41 42 43 43 42 40 37 36 38 41 43 42 41 39 38 38 39 40 40 40 40 39 37 36 36 35 34 33 33 36 40 42 42 41 41 42 44 45 46 45 44 43 42 41 41 39 37 35
31 31 32 33 34 35 35 36 38 39 39 41 42 44 46 47 49 52 52 49 46 42 39 40 42 41 37 35 36 38 40 42 42 42 43 42 40 41 43 45 45 44 42 41 40 38 38 40 43 44 43 41 40 40 40 40 41 42 42 42 41 40 39 37 34 32 32 35 39 43 44 44 44 44 45 46 46 45 44 44 44 44 43 42 39
31 33 34 35 35 36 36 36 37 39 39 40 42 43 44 45 47 49 51 53 52 49 45 44 45 43 40 38 38 40 42 43 44 46 46 44 42 42 44 45 46 45 45 46 46 43 41 42 43 45 47 46 44 43 41 41 42 43 45 46 45 44 43 40 38 34 32 31 34 38 42 46 47 48 48 48 48 47 46 46 46 45 45 44 42
32 33 34 35 35 36 36 36 37 38 39 40 41 42 43 44 45 47 50 52 54 53 51 49 48 45 43 42 40 40 43 45 45 47 50 49 46 45 45 45 45 45 47 48 48 48 48 48 48 48 49 49 47 46 45 45 44 44 47 48 49 48 46 44 41 39 36 34 34 34 36 39 43 47 49 50 49 49 48 47 46 45 44 43 42
32 33 34 34 35 36 37 37 38 39 39 40 40 41 42 43 44 46 49 52 54 55 55 53 52 50 48 46 43 41 44 47 48 48 51 53 52 50 48 47 47 48 48 48 48 50 52 55 54 53 52 51 49 48 48 47 45 45 49 50 50 50 48 45 43 41 40 37 35 33 32 32 34 38 42 45 46 47 46 45 44 43 43 42 41
33 34 34 35 35 36 37 38 38 39 40 40 40 40 41 42 43 45 47 50 53 56 57 57 56 55 53 50 46 44 44 47 49 50 51 54 55 55 53 52 52 52 51 51 51 52 55 56 55 53 52 52 52 51 49 49 46 47 50 50 50 51 49 47 44 42 41 39 35 33 31 31 30 31 33 36 39 40 41 41 40 40 40 40 41
34 34 35 35 36 36 37 38 39 39 40 41 40 40 40 41 42 43 46 49 51 54 57 59 60 59 58 56 52 50 47 46 47 49 51 54 56 57 56 55 55 55 54 54 54 55 56 56 55 55 54 53 53 52 52 51 49 49 51 50 50 50 49 48 46 43 43 41 37 34 33 32 31 31 30 31 33 35 36 37 36 36 37 37 38
35 35 36 36 37 37 37 38 39 40 40 41 42 41 40 40 41 42 44 46 49 52 55 58 61 61 61 61 59 56 54 52 49 47 48 50 54 56 56 56 57 56 56 56 56 57 57 57 56 57 56 55 54 53 54 53 51 50 50 49 49 49 49 49 48 46 45 43 40 38 36 34 33 31 30 30 30 31 32 33 34 34 33 34 34
38 38 37 37 37 37 38 38 39 40 41 42 43 43 42 41 41 41 42 44 47 50 53 55 59 62 62 63 62 61 60 59 56 52 49 48 51 54 56 57 58 58 58 58 59 59 58 58 58 57 57 57 56 56 56 55 53 53 52 50 49 49 48 49 50 49 47 45 43 40 39 37 35 33 32 31 30 29 29 30 31 31 32 32 31
41 41 41 40 39 39 39 39 39 39 40 41 42 43 44 43 43 42 42 43 45 48 50 52 55 59 62 63 63 63 63 63 62 59 56 52 51 52 54 55 56 58 59 59 60 60 60 60 59 58 58 58 57 57 57 56 54 55 56 53 51 50 49 50 51 50 49 48 47 45 43 41 39 37 36 35 34 33 32 31 30 31 31 30 29
44 44 44 44 43 42 42 41 41 40 41 41 42 43 44 44 45 44 44 43 44 46 48 50 52 55 58 61 63 64 64 65 65 63 62 60 56 54 54 56 56 57 58 59 60 60 60 60 60 60 60 60 60 60 59 57 57 58 58 56 54 52 51 52 53 52 51 50 51 51 49 46 43 41 40 40 39 38 37 36 35 33 32 32 31
48 47 47 47 47 46 45 45 44 43 42 42 42 43 44 45 45 46 46 46 46 46 47 48 50 52 54 57 60 62 63 65 66 66 66 65 63 59 57 58 59 59 58 59 60 61 61 61 61 62 62 62 62 62 61 60 60 61 60 58 58 56 55 56 56 54 54 53 53 53 52 51 49 47 45 44 44 43 42 41 40 39 37 36 36
51 51 50 50 49 49 49 48 48 47 46 45 45 44 45 45 46 46 47 48 48 48 48 49 50 50 52 54 56 58 60 62 64 66 67 68 68 67 63 61 61 62 61 60 60 61 62 63 64 64 64 64 64 63 62 62 62 63 62 61 60 59 59 59 58 57 57 57 55 54 54 55 54 53 51 49 48 48 47 46 45 44 43 42 41
54 54 53 53 52 52 51 51 51 51 50 49 48 47 47 47 47 48 48 48 49 49 50 51 51 51 52 52 53 55 56 58 60 62 64 66 67 69 68 66 65 64 64 63 62 62 62 63 64 65 65 66 65 64 63 63 64 64 64 63 62 62 62 61 60 59 59 59 58 57 56 56 56 56 55 54 53 52 51 51 50 49 49 47 46
56 56 57 56 56 55 54 54 54 53 53 53 52 51 50 50 49 49 49 49 49 49 50 51 53 54 54 54 54 54 55 56 57 58 60 62 63 65 67 68 68 67 67 66 65 64 64 64 64 64 65 65 65 65 64 64 65 65 65 64 64 63 63 63 62 61 60 60 59 59 58 58 57 56 56 55 54 54 54 54 54 54 54 53 52
57 57 58 59 59 59 58 57 57 56 55 55 55 55 54 53 52 52 51 51 51 50 51 52 53 54 56 57 57 56 56 56 57 57 58 59 61 62 64 65 67 68 68 68 68 67 67 67 67 66 65 66 65 64 63 64 64 64 64 63 63 62 62 62 62 61 60 60 59 59 58 57 57 58 57 57 56 56 57 57 57 58 59 58 57
58 59 59 60 60 60 60 60 60 60 59 58 57 57 57 57 56 56 55 54 53 53 52 53 53 54 55 57 58 59 59 58 58 58 59 60 60 61 62 63 64 65 66 67 68 69 69 69 70 70 69 70 69 66 64 65 65 64 63 62 61 61 61 62 62 61 61 61 61 60 59 58 58 59 60 60 60 60 60 60 60 61 62 61 61
57 59 61 62 62 61 62 62 62 62 62 61 61 60 60 60 59 59 59 58 57 56 56 55 56 56 56 57 58 60 60 61 61 60 60 61 61 61 62 62 63 64 64 65 66 68 69 70 71 71 72 72 71 71 69 69 69 69 68 67 66 65 65 65 65 64 64 65 65 64 63 63 62 62 63 63 64 64 64 64 64 64 64 64 64
59 60 60 62 63 64 64 64 64 64 64 64 63 63 63 63 63 62 62 62 61 61 60 59 59 59 59 58 59 60 61 62 62 63 63 62 62 62 62 63 63 64 64 65 65 66 67 69 70 71 72 71 70 70 71 72 72 72 73 73 72 72 71 70 70 69 69 70 70 69 69 69 68 67 68 68 68 68 68 68 68 67 67 67 67
62 62 63 63 64 65 66 66 66 65 65 65 65 66 66 66 66 65 65 65 64 64 64 64 63 63 62 62 61 61 61 62 63 64 64 64 64 64 63 63 64 64 65 65 66 66 66 67 69 70 72 73 72 71 71 72 73 74 75 75 76 76 76 75 75 74 74 75 75 75 74 73 73 72 72 72 71 71 71 70 70 69 69 69 69
63 64 65 66 66 66 66 67 68 68 67 67 67 67 68 69 69 68 68 68 68 68 67 67 67 67 67 66 66 65 64 64 64 64 64 65 65 66 66 65 65 65 65 66 66 66 66 67 68 69 70 72 73 74 73 72 73 74 75 75 77 78 78 79 79 79 79 78 79 79 78 77 77 76 76 75 75 74 73 72 72 71 71 70 70
60 61 62 64 66 67 68 68 69 70 70 71 71 70 71 71 70 70 70 71 71 71 71 71 71 70 70 70 70 69 69 68 67 66 66 65 66 66 67 67 67 67 67 67 67 67 67 67 68 69 70 70 71 73 74 75 74 74 74 75 76 77 78 79 81 81 81 81 81 81 80 80 80 80 79 79 78 76 75 74 73 72 71 71 70
57 59 60 62 64 67 68 68 68 70 71 73 73 74 75 74 73 72 72 73 73 74 74 74 74 74 74 73 73 73 72 72 71 70 69 68 67 67 68 68 69 69 70 70 70 70 69 69 69 70 70 71 72 73 73 74 75 75 76 76 77 77 78 79 80 81 82 82 82 82 83 83 82 81 81 81 80 78 77 76 75 73 73 72 71
60 62 63 64 65 65 64 63 66 69 72 73 74 76 77 77 76 75 76 76 75 76 76 76 77 77 77 76 76 76 76 75 75 74 73 72 71 71 70 70 70 70 71 72 72 72 72 72 72 72 72 73 74 75 74 74 75 75 76 77 78 79 79 79 80 81 81 81 81 81 82 82 82 81 80 80 80 79 79 78 76 75 75 75 73
67 68 69 69 68 66 62 60 63 67 69 72 75 77 78 78 78 78 78 78 78 78 78 79 79 80 80 80 79 79 79 78 77 77 76 76 75 75 74 73 73 72 73 73 74 74 75 74 75 75 75 76 76 77 76 76 76 76 77 77 78 79 80 81 81 82 83 82 81 81 82 82 82 81 80 81 81 80 80 80 79 78 78 78 76
70 71 71 71 70 68 66 65 66 66 68 71 74 76 77 77 76 78 79 80 81 81 81 82 82 82 82 82 82 82 82 81 80 80 79 79 79 79 78 77 77 76 76 76 76 77 77 77 77 78 78 78 79 79 79 79 79 78 79 79 79 80 81 81 82 83 84 84 83 83 83 84 84 83 82 83 83 82 82 82 81 81 82 81 80
71 71 71 71 72 70 69 69 69 68 68 72 74 74 75 74 74 75 77 77 80 82 84 85 85 85 85 85 85 84 84 83 83 83 83 82 82 81 81 81 81 81 80 80 80 80 80 80 80 81 81 81 81 81 82 83 82 82 81 82 82 82 82 83 83 84 85 85 85 84 84 85 86 85 85 85 86 85 84 83 83 83 83 85 84
72 72 71 71 72 72 70 71 71 68 69 73 75 74 74 73 73 74 75 75 77 80 82 84 86 87 87 87 87 87 86 86 86 86 86 86 86 85 84 84 85 85 85 84 84 84 85 84 84 84 84 84 83 84 85 85 85 85 85 84 85 85 85 85 85 86 86 87 87 86 85 86 88 87 87 87 88 88 86 85 84 84 84 85 86
74 75 74 74 73 73 72 72 71 69 71 75 76 74 74 74 74 76 76 76 78 80 80 81 83 85 86 87 88 89 89 88 88 88 89 89 89 88 87 87 88 88 88 88 89 89 89 88 88 87 87 88 88 88 88 88 88 88 88 87 87 87 87 87 87 87 88 88 89 88 86 88 90 90 89 90 90 90 89 86 85 85 85 85 87
76 77 77 76 75 75 74 74 72 71 74 76 75 75 75 75 76 78 78 78 80 81 81 81 82 83 84 85 87 88 89 90 90 91 92 93 92 91 90 90 90 91 92 92 93 93 92 92 91 91 91 92 92 92 92 92 92 92 91 91 90 91 90 89 89 89 89 90 91 90 89 89 92 92 91 91 91 91 90 88 86 86 86 87 89
78 78 77 77 76 75 75 74 73 73 75 76 74 75 75 76 78 79 80 80 81 81 82 82 82 82 82 83 85 87 88 89 90 91 93 94 94 93 93 93 93 94 95 95 96 96 95 95 95 95 95 95 96 96 96 96 96 96 95 94 94 95 94 93 92 92 93 93 94 94 93 92 94 95 94 94 93 93 92 90 87 86 86 87 90
80 79 78 78 77 75 75 75 74 75 75 75 74 75 76 77 79 80 81 82 82 82 82 81 81 82 82 83 84 86 87 88 88 89 91 93 94 94 95 95 96 97 98 99 99 98 97 97 98 98 98 99 99 100 100 100 100 100 99 98 98 99 98 97 96 96 96 97 98 99 98 97 97 98 98 97 97 96 96 94 90 87 86 88 91
82 81 80 80 79 78 77 76 76 76 75 75 75 76 77 78 80 81 82 82 82 81 80 81 81 82 82 83 84 85 86 86 87 88 90 90 91 92 94 95 96 98 100 101 101 101 100 100 100 100 101 102 102 102 103 103 103 103 103 102 102 102 101 101 100 100 99 100 102 103 103 102 102 102 101 101 101 100 100 99 95 91 89 90 94
Wind_Direction
270 269 271 277 280 278 275 277 281 282 277 277 281 277 275 276 275 272 269 263 258 254 250 246 244 244 244 244 242 237 236 233 227 230 237 240 238 240 254 261 261 261 260 260 252 244 243 241 237 235 236 235 235 238 243 248 253 256 255 254 256 259 260 262 266 264 259 261 266 269 270 272 275 278 280 280 276 273 270 271 273 275 275 271 263
265 264 268 274 275 270 271 274 276 276 271 264 265 268 271 275 275 271 267 262 256 252 248 244 243 244 246 245 243 237 228 225 228 237 244 244 242 249 257 258 259 262 262 266 262 251 245 242 240 238 237 237 236 236 238 240 245 251 254 257 257 258 259 261 264 264 258 258 264 268 269 271 274 277 278 280 279 275 269 267 271 274 274 271 264
264 264 264 266 269 268 271 273 269 266 261 254 254 262 269 273 273 270 265 259 253 249 246 243 243 243 244 244 243 239 232 226 227 232 235 236 242 250 252 253 260 263 264 270 267 256 249 244 242 241 240 238 237 237 240 242 245 248 251 255 256 256 259 261 261 260 257 258 263 267 268 269 272 274 275 277 279 276 270 266 267 271 272 270 265
266 266 264 262 260 263 269 270 267 265 258 255 254 256 264 271 271 268 264 257 250 246 244 241 240 240 240 241 240 238 236 231 227 225 226 232 241 246 248 253 260 262 263 270 271 258 250 247 245 245 244 240 237 236 239 244 248 249 249 252 253 254 257 258 257 256 254 256 260 264 266 267 270 272 273 274 275 273 269 263 262 266 268 267 264
267 266 264 260 255 255 261 264 265 265 260 256 254 253 260 267 268 266 262 256 251 246 243 237 235 238 239 239 239 237 234 229 224 220 223 229 236 241 249 257 259 261 263 268 272 259 247 247 248 248 246 243 239 235 236 240 244 246 247 247 249 251 253 254 254 253 253 255 258 262 265 267 269 270 271 272 271 267 261 257 257 261 265 265 263
265 263 261 259 255 252 252 259 263 261 256 254 254 256 259 261 262 263 260 257 255 249 245 237 232 237 241 239 240 238 232 227 223 222 222 224 229 239 252 261 261 261 264 267 268 257 244 245 247 249 248 244 241 237 236 238 241 243 244 244 246 247 250 252 253 253 253 254 256 260 264 268 268 268 269 271 269 260 251 250 253 258 261 263 262
261 259 255 254 254 252 249 252 258 256 254 255 254 254 256 257 258 260 261 261 260 254 248 239 234 238 242 240 238 236 231 228 227 228 227 223 224 237 253 261 259 261 265 266 261 250 243 245 247 249 248 245 243 241 239 239 241 243 244 245 247 248 250 252 253 254 255 255 257 260 264 268 267 266 267 269 268 258 249 249 252 255 258 259 260
258 254 251 249 248 248 248 247 249 252 252 250 247 247 250 254 256 257 259 260 261 258 249 240 237 240 242 240 236 232 229 227 228 229 229 225 223 234 254 257 254 261 266 261 250 243 242 245 246 246 246 244 243 243 243 243 243 244 244 245 247 249 251 253 254 255 256 257 259 262 265 267 265 264 265 268 268 260 253 252 253 254 255 256 257
256 253 249 248 242 237 242 243 239 242 249 247 241 242 249 254 256 254 253 256 259 259 251 240 237 239 239 238 234 231 228 226 226 225 223 222 226 236 250 252 250 260 266 252 238 237 240 243 244 244 244 245 245 245 246 246 247 247 246 245 245 246 249 253 256 256 257 258 260 262 264 264 264 263 263 265 267 263 257 255 255 256 256 256 256
253 251 247 244 235 228 234 238 232 229 236 239 236 237 246 254 254 248 248 254 258 258 253 240 234 236 237 235 233 231 230 228 226 224 220 219 227 236 240 245 249 256 263 248 235 233 232 235 239 242 244 247 248 248 248 248 248 249 248 248 247 246 246 249 254 258 260 261 262 263 262 262 262 261 260 262 264 263 260 258 257 258 259 259 258
249 248 245 240 235 231 232 236 234 231 230 230 231 231 234 249 252 248 247 249 249 249 250 241 232 233 236 234 232 230 229 230 228 227 223 220 227 232 235 244 249 252 256 251 246 240 234 235 239 244 249 250 251 253 253 251 250 250 249 250 250 250 249 249 251 254 258 261 263 264 262 262 261 259 258 258 258 259 261 261 260 259 259 259 260
246 244 242 238 235 235 234 235 235 233 230 228 228 225 225 239 246 248 247 241 237 237 242 244 235 232 237 238 234 231 229 228 228 227 224 223 225 228 232 239 244 246 249 249 250 248 242 242 244 246 250 250 253 257 259 259 257 255 253 251 251 251 251 252 252 253 254 256 258 260 261 260 258 255 254 253 253 256 260 263 264 262 259 258 258
246 243 240 236 234 234 234 235 234 231 228 225 223 221 222 229 229 236 244 238 232 231 236 245 241 233 237 242 239 235 232 230 228 226 224 224 226 227 228 230 232 236 240 241 244 243 239 239 240 242 243 244 252 259 263 266 265 264 261 258 255 253 252 253 253 253 254 254 254 255 257 258 256 254 252 250 252 257 259 261 264 264 262 258 257
245 242 240 236 234 233 231 232 232 230 226 223 219 217 220 222 215 223 238 233 225 226 233 239 239 233 233 240 243 241 238 235 232 229 227 226 228 231 231 229 230 234 238 239 239 238 236 235 236 239 240 240 246 253 258 263 267 271 271 267 262 259 256 255 254 254 254 254 254 254 255 257 256 254 253 252 254 257 258 260 263 264 263 260 258
244 242 240 237 234 233 230 230 230 229 225 222 218 216 217 215 213 222 230 222 215 221 230 231 229 231 232 234 239 242 241 237 234 233 231 230 230 234 236 233 233 235 237 240 241 239 237 236 238 242 245 244 244 246 249 255 260 267 273 274 270 265 261 258 257 256 255 255 255 255 257 258 257 256 255 255 256 258 260 261 262 264 264 263 262
243 241 240 238 235 233 231 229 229 229 226 222 219 215 213 214 216 221 221 213 210 215 221 223 220 226 230 229 231 236 239 239 237 234 232 232 232 234 236 236 236 235 235 239 242 242 240 239 240 246 250 252 251 247 246 248 249 254 263 269 271 269 265 259 256 256 257 257 257 256 257 258 258 258 258 258 259 262 264 261 261 263 263 263 264
241 240 238 237 235 233 232 231 230 230 228 225 222 219 217 217 217 219 216 209 211 215 215 216 217 221 227 228 229 231 234 238 240 237 235 233 233 234 236 236 237 237 236 238 241 242 242 242 244 249 253 256 256 250 248 249 248 248 251 257 264 268 268 265 259 255 253 256 258 258 258 258 258 258 259 260 261 264 264 260 257 258 259 261 262
239 238 236 234 234 233 233 233 232 231 230 229 226 224 224 223 222 224 220 211 211 215 213 212 216 221 223 226 229 231 231 233 236 237 236 236 236 235 236 237 238 239 238 240 244 243 243 245 247 250 252 256 258 252 249 251 252 252 252 252 256 262 266 268 266 261 254 252 254 257 259 259 259 259 259 260 261 263 263 260 258 258 258 259 260
235 234 233 231 230 232 232 232 234 233 232 231 230 228 227 227 226 228 227 219 213 213 210 208 213 217 220 222 224 227 229 228 228 230 231 233 236 236 235 236 238 238 236 239 243 242 242 247 249 249 250 255 258 255 251 251 253 255 255 255 256 259 263 265 267 267 262 255 251 252 255 257 259 259 259 259 260 262 263 262 261 260 259 259 260
232 230 229 228 228 231 232 232 233 234 232 232 232 230 229 228 227 228 229 226 222 219 212 207 209 215 221 224 221 221 225 226 225 226 227 229 232 233 233 234 236 237 235 235 237 237 239 245 249 247 246 249 253 253 252 251 252 253 254 256 257 258 262 264 264 265 265 261 255 252 252 253 255 257 259 259 260 261 262 263 263 263 261 259 259
234 232 230 228 228 230 233 233 234 234 234 233 232 232 231 230 228 227 227 227 226 225 219 211 210 215 221 225 223 220 222 224 225 225 226 227 228 229 229 231 234 236 235 233 234 234 235 239 244 244 243 244 246 247 248 249 251 253 253 253 255 257 260 264 264 261 260 261 261 257 254 253 254 255 257 258 259 260 261 262 263 263 262 260 259
237 236 234 232 231 231 233 234 234 234 236 235 234 233 232 232 230 228 227 227 226 225 222 216 213 215 220 224 225 222 222 224 225 225 227 228 229 229 228 228 230 233 235 235 233 235 236 238 241 243 243 243 244 244 245 246 247 250 251 251 253 256 259 262 264 262 258 256 257 259 258 257 256 256 256 257 259 260 260 261 261 261 261 260 259
240 239 237 236 235 234 234 235 235 234 235 236 236 234 234 233 232 231 229 228 227 226 223 219 216 216 218 222 224 223 221 222 225 226 227 228 229 231 231 231 231 232 234 236 234 234 237 238 240 243 245 245 245 245 246 247 247 249 250 251 253 256 258 260 263 263 259 255 255 257 260 261 261 261 259 259 259 260 260 260 260 259 258 259 258
245 243 241 239 238 238 237 237 237 236 235 236 236 236 235 234 233 232 231 230 229 228 226 224 220 218 218 219 220 220 217 217 221 224 226 228 228 230 232 233 235 236 236 236 236 234 236 239 241 244 246 248 248 247 248 249 250 249 250 252 254 255 257 259 261 262 259 256 255 256 258 261 262 263 262 260 259 260 260 260 260 259 258 257 256
247 247 246 244 243 242 240 240 239 239 237 237 237 237 236 235 234 233 233 232 232 231 230 229 227 223 221 220 220 219 216 216 219 221 223 227 229 230 232 234 236 238 238 238 239 239 239 241 242 245 247 249 249 248 247 248 249 250 251 252 253 254 255 256 257 259 256 254 254 254 255 257 260 262 262 260 259 260 261 261 261 261 260 259 257
248 249 248 248 248 247 245 243 242 242 240 239 238 238 237 236 235 234 233 233 234 233 233 232 232 230 227 225 223 221 220 222 223 222 222 226 230 231 232 233 235 237 237 239 241 242 243 243 244 245 247 249 249 248 248 247 248 250 251 251 253 254 255 254 255 256 254 253 253 253 253 254 257 260 260 259 259 259 261 262 262 261 260 261 260
249 249 248 248 248 248 248 247 245 244 243 241 240 239 239 238 237 236 234 234 234 235 235 235 235 235 233 231 229 227 225 227 230 229 226 226 230 232 232 232 234 236 237 238 240 242 243 244 245 246 246 248 250 250 250 249 249 250 250 251 252 254 254 254 254 255 254 253 252 253 253 253 254 255 256 256 256 258 260 261 262 262 261 260 261
250 250 249 248 248 247 248 247 247 246 245 244 242 241 240 240 239 238 236 235 234 234 236 236 236 237 237 237 235 234 232 232 234 236 235 232 230 231 233 233 233 235 237 238 239 241 243 244 245 246 246 248 249 249 250 251 251 251 251 252 252 253 254 254 255 255 255 254 254 253 253 253 253 253 254 255 256 258 260 260 260 261 261 260 260
252 251 251 250 249 248 247 247 247 246 246 245 244 243 242 241 241 240 238 237 235 234 235 236 238 238 239 239 240 239 239 238 238 238 239 239 237 233 233 235 236 235 236 237 239 240 242 243 244 245 246 247 247 249 250 251 252 252 253 253 253 254 254 254 255 255 255 255 255 254 254 253 253 254 255 256 257 258 259 259 259 259 260 260 260
253 252 252 251 250 249 248 248 247 246 246 245 244 244 243 243 242 242 241 240 238 236 235 235 237 238 239 240 241 241 242 241 241 241 241 242 242 240 236 235 237 238 239 239 241 242 243 243 244 245 246 246 247 248 249 250 250 252 253 254 255 255 255 255 255 255 256 256 256 256 255 254 254 254 255 257 258 259 259 259 259 258 259 260 261
254 253 253 252 251 250 249 248 248 247 247 246 245 244 244 243 243 243 244 243 241 239 236 235 236 237 239 240 241 242 243 243 243 244 243 243 243 244 241 238 237 239 241 242 242 244 245 246 245 245 246 247 248 248 249 249 250 252 253 254 255 255 255 255 255 256 256 256 257 257 256 256 255 255 255 257 258 259 259 259 259 259 259 259 261
255 255 254 253 252 251 250 249 248 248 247 246 246 245 244 244 244 244 244 245 244 243 241 238 236 236 237 239 240 241 242 243 243 244 245 245 244 244 244 242 240 238 239 241 242 241 243 246 247 247 247 248 249 249 249 250 251 252 253 254 255 255 255 256 256 256 255 256 256 256 256 256 256 256 256 257 258 258 259 260 260 260 260 260 261
255 255 254 254 253 252 251 250 250 249 248 247 247 246 245 245 244 244 245 245 246 246 245 243 241 239 237 238 239 240 240 241 242 243 244 245 245 245 245 245 244 241 239 240 241 241 240 242 245 247 248 248 249 250 250 251 251 252 254 255 255 256 255 255 255 255 255 256 256 257 256 256 256 256 256 257 258 258 259 260 261 261 261 260 260
254 254 254 254 253 252 251 251 250 250 250 249 248 247 247 246 246 245 245 245 245 246 246 246 245 243 241 240 239 239 240 240 240 242 243 243 245 245 246 245 245 245 242 241 241 241 241 240 241 244 246 247 249 249 249 251 252 253 254 255 256 257 257 257 256 255 255 255 256 257 257 256 256 256 256 257 258 259 259 260 261 262 262 262 262
253 254 254 253 253 253 252 252 251 250 250 249 249 248 248 247 247 247 246 245 245 245 245 246 246 245 244 243 241 240 240 240 241 241 241 242 242 243 245 245 245 245 245 244 242 242 242 240 239 240 243 246 248 247 246 246 248 249 250 252 253 254 255 255 255 255 255 255 255 255 255 255 254 255 255 256 257 258 258 259 260 261 263 263 264
255 255 254 253 253 253 253 252 252 251 250 249 249 249 248 248 248 247 247 246 245 245 245 245 245 245 245 244 244 243 242 241 241 242 242 242 242 242 243 244 244 245 246 246 245 244 244 243 241 240 240 242 245 247 246 245 245 245 245 247 248 249 250 250 251 252 253 253 253 253 253 253 253 254 254 254 255 256 257 258 259 260 262 264 265
257 256 255 254 253 253 252 252 252 252 251 251 250 249 248 248 248 247 247 248 247 247 246 245 245 245 245 245 245 244 244 243 242 243 243 243 243 243 244 244 244 245 245 245 246 246 246 246 244 242 242 242 243 244 245 246 246 246 246 246 247 248 248 249 249 250 251 253 254 254 254 254 254 254 254 255 255 256 257 258 259 260 261 263 264
255 256 257 257 256 253 252 251 251 251 251 251 251 251 250 249 248 248 248 248 248 248 248 247 246 246 245 245 245 245 245 245 244 244 244 244 245 244 245 245 245 246 246 246 246 246 246 246 246 245 245 245 245 244 244 244 245 246 247 248 248 248 249 249 250 250 252 254 255 256 257 257 257 257 257 256 256 257 257 258 259 260 261 262 263
254 256 258 258 257 255 253 253 252 252 251 251 251 251 251 250 249 249 248 248 248 248 248 248 248 247 247 246 246 245 245 245 245 245 245 245 246 246 246 246 246 246 247 247 247 247 247 247 248 248 247 246 246 247 246 245 244 245 246 247 248 248 249 250 250 251 252 253 255 257 258 259 259 259 259 259 259 258 259 259 259 260 261 262 263
256 257 258 258 257 256 256 255 254 254 253 252 251 251 250 250 250 250 250 249 249 248 249 249 249 248 248 248 247 247 246 246 246 246 246 246 247 247 247 247 247 247 247 248 248 248 247 248 248 249 249 248 248 248 248 247 247 246 246 247 247 248 248 249 250 251 252 253 254 256 258 259 260 260 260 261 261 261 261 261 261 261 261 262 263
253 252 253 255 256 256 257 256 256 255 254 254 253 252 251 250 250 250 250 250 250 249 249 249 249 249 249 249 249 249 248 248 247 247 247 247 247 247 247 247 248 248 248 248 249 249 249 248 248 249 249 250 250 249 249 248 248 248 248 248 249 249 249 250 250 251 252 252 253 255 256 257 258 259 260 261 261 262 262 262 262 262 262 262 262
248 248 249 252 253 254 255 256 256 255 255 255 254 253 252 251 250 250 250 250 250 250 250 250 250 250 250 250 250 250 250 249 249 249 248 248 248 248 248 248 248 248 249 249 249 250 250 250 250 249 249 250 251 251 250 250 249 249 249 249 249 250 251 251 251 252 252 252 252 253 254 255 255 256 258 259 260 261 261 262 262 263 263 263 263
247 248 250 252 252 252 252 254 255 255 255 256 256 255 254 253 252 251 251 251 251 251 251 251 251 250 250 250 250 250 251 250 250 250 250 250 250 250 249 249 249 249 249 250 250 250 250 251 251 251 250 251 251 252 252 252 251 251 251 251 250 250 251 251 252 253 253 252 252 253 254 254 254 254 255 256 257 258 259 260 261 261 262 263 263
249 250 252 253 253 252 251 252 254 255 255 257 257 258 257 256 254 254 253 253 252 252 251 251 251 251 250 250 250 250 251 251 251 251 251 251 251 251 251 251 250 250 250 250 250 250 250 250 251 251 251 251 252 252 253 252 252 252 252 253 253 252 252 252 253 253 254 254 253 254 254 255 255 255 255 255 256 256 257 258 259 260 261 261 261
254 254 254 254 254 254 253 253 253 254 255 256 257 257 259 259 258 256 255 254 254 254 253 252 252 251 251 251 251 250 250 251 251 251 251 251 251 251 251 251 251 251 251 251 251 251 251 251 251 251 251 251 252 253 253 253 253 252 252 252 253 253 254 254 254 254 255 255 254 254 255 256 256 256 256 256 256 256 256 257 258 259 260 261 261
257 257 256 256 256 255 254 254 254 254 255 256 256 257 258 258 259 258 257 255 255 254 254 254 253 253 252 251 251 251 251 251 251 251 251 251 251 251 251 251 252 251 251 251 251 251 252 252 252 252 252 253 252 253 253 254 254 254 253 253 253 253 253 254 255 255 256 256 256 255 255 256 257 256 256 257 257 257 256 256 257 258 259 260 261
260 260 259 258 258 258 257 256 255 255 255 256 257 257 257 258 258 258 257 257 256 255 255 254 254 254 254 253 253 252 252 251 251 251 251 251 251 251 251 252 252 252 252 252 252 251 252 252 252 253 253 254 254 253 254 254 254 255 255 255 255 255 254 255 255 256 256 257 257 257 257 257 257 257 256 256 257 257 257 256 256 257 258 260 261
261 261 261 260 260 260 260 259 258 257 257 257 258 258 259 259 258 258 258 257 257 257 256 256 255 255 255 255 255 254 253 252 251 251 251 251 251 251 251 251 252 252 252 252 252 252 252 252 252 253 253 254 255 255 254 255 255 255 255 255 256 256 256 256 256 257 257 257 258 258 258 258 259 259 258 257 257 257 257 256 256 256 257 258 259
262 262 262 261 261 260 261 261 260 259 259 259 259 260 260 260 260 259 259 258 257 257 257 257 256 256 256 256 256 256 255 254 253 252 252 252 252 251 251 251 251 252 252 252 252 252 252 253 253 253 253 253 254 255 255 255 255 255 256 256 256 256 256 256 257 257 258 258 259 259 258 257 258 259 259 259 259 258 258 256 255 255 256 257 258
264 263 263 263 262 261 261 261 261 260 261 261 261 261 260 260 260 260 259 259 258 258 258 258 258 258 257 257 257 257 257 256 256 255 254 253 253 252 251 251 251 252 252 252 252 252 252 253 253 253 254 254 254 254 255 255 255 256 256 256 256 257 257 257 257 257 258 259 259 260 259 258 258 258 259 259 259 259 259 258 257 255 255 256 257
264 264 264 264 264 263 262 262 261 261 261 261 261 261 260 260 260 260 259 259 259 259 259 259 259 258 258 257 257 257 258 258 257 257 257 256 255 254 252 251 251 252 252 252 252 252 252 252 252 253 253 254 254 255 255 255 256 256 256 256 256 257 258 258 258 258 258 258 259 260 260 260 260 259 260 260 260 259 260 259 258 257 257 257 258
Height
10713 10717 10717 10714 10712 10711 10711 10712 10713 10716 10716 10710 10704 10700 10699 10700 10703 10705 10705 10705 10705 10706 10708 10709 10710 10711 10713 10715 10717 10719 10722 10725 10728 10730 10732 10734 10736 10738 10739 10740 10741 10742 10744 10744 10745 10745 10746 10747 10748 10749 10750 10752 10754 10756 10757 10759 10760 10762 10764 10766 10767 10768 10769 10770 10771 10771 10772 10773 10774 10775 10776 10777 10778 10779 10779 10780 10781 10782 10782 10782 10782 10782 10782 10782 10782
10710 10713 10714 10714 10714 10711 10708 10708 10713 10715 10711 10707 10702 10697 10695 10696 10698 10699 10701 10701 10701 10702 10704 10705 10707 10708 10710 10712 10713 10715 10717 10720 10724 10727 10729 10732 10733 10735 10736 10737 10738 10740 10741 10741 10741 10741 10742 10744 10745 10746 10747 10749 10751 10752 10754 10755 10757 10759 10761 10763 10764 10765 10766 10767 10768 10769 10769 10770 10771 10772 10773 10774 10775 10776 10777 10777 10778 10779 10780 10780 10780 10780 10779 10779 10780
10704 10706 10708 10712 10713 10709 10705 10705 10709 10710 10704 10699 10697 10694 10693 10693 10694 10695 10696 10697 10697 10698 10700 10701 10703 10704 10705 10707 10709 10711 10713 10715 10718 10721 10725 10728 10730 10731 10733 10734 10735 10737 10738 10738 10738 10738 10739 10741 10742 10743 10744 10745 10747 10750 10751 10752 10754 10755 10757 10759 10760 10762 10763 10764 10765 10766 10766 10767 10768 10769 10770 10771 10772 10773 10774 10775 10775 10776 10777 10778 10778 10777 10777 10777 10777
10696 10697 10700 10705 10706 10703 10700 10700 10700 10701 10697 10693 10692 10690 10690 10690 10690 10691 10691 10692 10693 10694 10695 10697 10698 10699 10701 10704 10706 10708 10710 10712 10714 10718 10722 10724 10726 10728 10730 10731 10732 10734 10734 10735 10735 10736 10736 10737 10739 10740 10741 10743 10745 10746 10748 10749 10750 10752 10754 10755 10757 10758 10760 10761 10762 10762 10763 10764 10765 10766 10767 10768 10769 10770 10771 10772 10773 10773 10774 10775 10775 10775 10775 10775 10775
10687 10688 10691 10695 10697 10695 10695 10694 10693 10693 10691 10689 10688 10687 10687 10687 10687 10687 10687 10688 10690 10691 10692 10693 10695 10696 10698 10700 10702 10705 10707 10709 10712 10714 10717 10720 10722 10724 10726 10728 10729 10731 10731 10732 10733 10733 10734 10735 10736 10737 10738 10740 10741 10743 10744 10745 10746 10748 10749 10751 10753 10755 10756 10757 10758 10759 10760 10761 10762 10763 10764 10765 10766 10767 10768 10769 10770 10770 10771 10772 10772 10773 10773 10773 10773
10679 10680 10682 10685 10687 10688 10690 10689 10686 10687 10686 10684 10684 10683 10683 10683 10684 10684 10684 10685 10687 10689 10690 10691 10692 10693 10695 10697 10699 10702 10704 10706 10708 10711 10713 10715 10718 10720 10722 10724 10726 10727 10728 10729 10730 10730 10731 10732 10733 10734 10735 10737 10738 10739 10741 10742 10743 10744 10746 10747 10749 10750 10752 10753 10754 10755 10756 10757 10759 10760 10761 10762 10763 10764 10765 10766 10766 10767 10768 10769 10770 10770 10770 10770 10770
10672 10673 10674 10676 10679 10682 10685 10683 10679 10679 10680 10680 10679 10680 10680 10680 10681 10681 10682 10683 10685 10687 10688 10689 10690 10691 10693 10695 10697 10699 10701 10703 10705 10708 10710 10712 10715 10717 10719 10721 10723 10725 10725 10725 10726 10727 10728 10729 10730 10731 10733 10734 10735 10736 10737 10738 10740 10741 10742 10744 10745 10747 10748 10749 10750 10751 10752 10754 10755 10757 10758 10759 10760 10761 10761 10762 10763 10764 10765 10766 10767 10768 10768 10768 10768
10663 10665 10666 10669 10673 10676 10677 10676 10674 10674 10674 10674 10675 10676 10677 10677 10678 10678 10679 10681 10683 10684 10686 10687 10688 10689 10691 10692 10694 10696 10698 10700 10702 10705 10707 10710 10712 10714 10716 10718 10720 10722 10722 10722 10723 10724 10725 10726 10728 10729 10730 10731 10732 10733 10734 10735 10736 10738 10739 10741 10742 10744 10745 10746 10747 10748 10749 10750 10751 10753 10754 10756 10757 10757 10758 10759 10760 10761 10762 10763 10764 10764 10765 10765 10765
10655 10656 10658 10661 10665 10669 10669 10670 10672 10671 10669 10668 10669 10671 10672 10673 10674 10676 10677 10678 10681 10682 10683 10684 10685 10687 10688 10690 10692 10693 10695 10697 10699 10701 10704 10707 10709 10711 10713 10715 10718 10719 10719 10719 10720 10721 10722 10724 10725 10727 10728 10729 10730 10731 10731 10733 10733 10734 10735 10737 10739 10740 10741 10742 10743 10744 10745 10747 10748 10749 10751 10752 10753 10754 10755 10756 10757 10758 10759 10760 10760 10761 10762 10762 10762
10647 10649 10651 10654 10658 10660 10662 10664 10666 10667 10667 10664 10663 10666 10669 10671 10673 10673 10675 10677 10679 10679 10680 10681 10683 10684 10685 10687 10689 10690 10692 10694 10696 10698 10700 10702 10705 10707 10709 10712 10714 10716 10717 10717 10717 10719 10720 10722 10723 10725 10726 10727 10727 10728 10729 10730 10730 10731 10732 10733 10735 10736 10738 10739 10740 10741 10742 10744 10745 10746 10747 10748 10750 10751 10752 10752 10753 10754 10755 10757 10757 10758 10758 10759 10760
10640 10642 10644 10648 10651 10652 10655 10657 10659 10661 10662 10659 10659 10663 10668 10670 10672 10673 10674 10677 10676 10676 10677 10678 10679 10681 10682 10684 10686 10687 10689 10691 10693 10695 10697 10699 10701 10703 10706 10707 10710 10713 10715 10715 10716 10717 10718 10719 10721 10722 10723 10724 10725 10726 10726 10727 10728 10728 10729 10730 10731 10732 10734 10735 10737 10738 10739 10741 10742 10742 10743 10745 10746 10747 10748 10749 10750 10751 10752 10753 10754 10755 10755 10756 10756
10634 10636 10638 10641 10643 10646 10649 10650 10652 10654 10655 10654 10656 10661 10664 10666 10669 10671 10672 10674 10674 10674 10675 10676 10677 10678 10679 10681 10683 10684 10686 10687 10689 10691 10693 10695 10697 10699 10701 10703 10705 10708 10711 10712 10713 10714 10715 10717 10718 10720 10721 10722 10723 10724 10724 10725 10725 10725 10726 10727 10727 10729 10730 10731 10733 10734 10736 10737 10738 10739 10740 10741 10742 10743 10744 10745 10747 10748 10748 10750 10751 10752 10752 10753 10753
10628 10630 10632 10635 10637 10640 10643 10644 10645 10647 10648 10649 10653 10656 10659 10662 10664 10666 10668 10669 10671 10672 10673 10674 10674 10675 10676 10678 10679 10681 10682 10683 10685 10687 10689 10691 10693 10694 10696 10698 10701 10703 10706 10708 10709 10711 10712 10713 10715 10716 10718 10719 10720 10721 10722 10723 10723 10723 10723 10724 10725 10725 10727 10728 10729 10730 10732 10733 10734 10736 10736 10738 10739 10740 10741 10742 10743 10745 10746 10746 10747 10748 10749 10749 10750
10623 10625 10627 10629 10631 10634 10637 10638 10639 10641 10643 10645 10648 10651 10654 10656 10657 10660 10662 10664 10667 10669 10670 10670 10670 10671 10673 10674 10675 10677 10678 10680 10682 10684 10685 10687 10689 10691 10693 10695 10697 10699 10701 10703 10705 10707 10709 10710 10711 10713 10715 10716 10717 10718 10719 10720 10721 10721 10721 10722 10722 10723 10723 10724 10725 10726 10727 10729 10730 10731 10733 10734 10736 10737 10738 10739 10741 10741 10742 10743 10744 10745 10745 10746 10747
10618 10620 10622 10624 10626 10629 10631 10632 10634 10635 10638 10640 10643 10646 10648 10649 10651 10654 10656 10659 10663 10665 10665 10665 10666 10667 10668 10670 10671 10672 10674 10676 10678 10680 10682 10684 10686 10687 10689 10691 10692 10694 10697 10699 10701 10704 10705 10707 10708 10710 10712 10713 10714 10715 10716 10716 10717 10718 10719 10719 10719 10719 10720 10720 10721 10722 10723 10725 10726 10727 10729 10730 10732 10734 10736 10737 10737 10738 10739 10740 10740 10741 10742 10743 10744
10614 10616 10617 10619 10622 10624 10625 10627 10629 10630 10632 10635 10637 10640 10642 10643 10646 10648 10650 10653 10656 10658 10659 10660 10661 10662 10663 10665 10667 10668 10670 10672 10674 10677 10679 10680 10681 10683 10684 10686 10688 10690 10692 10695 10697 10700 10702 10704 10705 10707 10708 10710 10712 10713 10713 10713 10714 10715 10716 10716 10716 10716 10716 10717 10717 10718 10719 10720 10722 10723 10725 10726 10728 10730 10731 10732 10733 10734 10735 10736 10737 10738 10738 10739 10740
10610 10612 10613 10615 10617 10619 10621 10623 10624 10626 10627 10629 10632 10634 10636 10638 10642 10644 10645 10647 10649 10651 10653 10654 10656 10656 10658 10660 10662 10664 10667 10669 10671 10672 10675 10676 10676 10678 10680 10682 10684 10686 10688 10691 10694 10697 10699 10700 10702 10703 10705 10706 10708 10710 10710 10710 10710 10711 10712 10713 10712 10712 10712 10713 10714 10715 10716 10717 10718 10720 10721 10722 10723 10725 10726 10727 10729 10730 10731 10732 10733 10734 10734 10735 10736
10606 10608 10610 10611 10613 10615 10617 10619 10620 10621 10623 10624 10627 10629 10631 10634 10638 10639 10639 10640 10643 10646 10647 10650 10652 10652 10654 10656 10658 10661 10664 10665 10667 10668 10670 10671 10672 10675 10677 10678 10680 10682 10685 10687 10690 10693 10695 10696 10697 10699 10701 10702 10704 10706 10707 10707 10707 10708 10709 10709 10709 10709 10709 10709 10710 10711 10712 10713 10715 10716 10717 10718 10719 10720 10721 10723 10724 10725 10726 10727 10729 10729 10730 10731 10732
10603 10604 10606 10607 10609 10611 10613 10615 10616 10617 10619 10620 10622 10624 10627 10629 10632 10633 10633 10635 10638 10640 10642 10645 10648 10649 10650 10652 10654 10657 10659 10661 10662 10664 10665 10666 10668 10670 10672 10674 10675 10677 10681 10683 10685 10688 10691 10692 10693 10694 10696 10697 10699 10701 10702 10703 10703 10704 10704 10705 10705 10705 10705 10706 10707 10707 10708 10709 10711 10712 10713 10714 10714 10715 10717 10718 10719 10720 10721 10723 10724 10725 10726 10727 10728
10599 10600 10602 10603 10605 10607 10609 10610 10612 10613 10615 10616 10617 10620 10622 10624 10627 10628 10629 10631 10633 10635 10637 10641 10643 10645 10647 10648 10650 10652 10654 10656 10658 10660 10660 10661 10663 10665 10667 10669 10670 10673 10676 10678 10680 10683 10687 10688 10688 10689 10690 10692 10694 10695 10697 10699 10699 10699 10700 10700 10700 10701 10702 10702 10703 10704 10704 10705 10706 10708 10709 10710 10710 10710 10712 10713 10714 10716 10717 10718 10719 10720 10721 10722 10723
10595 10596 10597 10599 10601 10603 10604 10606 10608 10609 10611 10612 10614 10615 10617 10620 10622 10623 10625 10627 10629 10630 10633 10635 10638 10640 10643 10644 10645 10647 10649 10651 10653 10655 10655 10657 10658 10659 10662 10664 10666 10669 10671 10673 10676 10679 10681 10682 10682 10683 10685 10686 10688 10689 10692 10693 10694 10695 10695 10694 10695 10696 10697 10698 10699 10700 10701 10701 10702 10703 10704 10704 10705 10706 10707 10708 10709 10711 10713 10714 10715 10715 10716 10717 10718
10591 10592 10594 10595 10597 10598 10600 10602 10604 10605 10607 10608 10610 10612 10613 10615 10617 10619 10621 10622 10624 10626 10628 10630 10633 10635 10638 10639 10641 10643 10645 10647 10648 10650 10651 10652 10653 10655 10657 10660 10662 10665 10666 10669 10672 10674 10675 10676 10676 10678 10679 10681 10683 10685 10687 10688 10690 10691 10689 10688 10689 10691 10692 10694 10695 10696 10697 10697 10698 10699 10699 10699 10700 10701 10702 10703 10704 10706 10707 10708 10709 10710 10711 10712 10713
10587 10589 10590 10591 10593 10594 10596 10597 10599 10601 10602 10604 10606 10608 10610 10611 10613 10614 10616 10618 10619 10621 10623 10625 10627 10630 10632 10634 10636 10639 10641 10642 10644 10645 10646 10647 10649 10650 10653 10655 10657 10659 10661 10664 10667 10669 10669 10670 10671 10673 10674 10676 10679 10681 10682 10683 10686 10686 10683 10683 10685 10686 10688 10689 10691 10692 10693 10693 10694 10695 10695 10695 10696 10696 10697 10698 10699 10700 10701 10702 10704 10705 10706 10707 10708
10584 10585 10586 10588 10589 10590 10592 10593 10595 10596 10598 10599 10601 10603 10605 10607 10609 10611 10612 10613 10615 10616 10618 10619 10621 10624 10626 10629 10631 10634 10636 10637 10638 10640 10641 10642 10643 10645 10648 10650 10652 10654 10657 10659 10662 10663 10664 10665 10667 10669 10671 10672 10674 10677 10678 10679 10681 10679 10677 10679 10681 10682 10684 10685 10686 10687 10688 10689 10690 10691 10691 10691 10692 10692 10693 10694 10695 10695 10696 10697 10698 10699 10701 10702 10703
10581 10582 10583 10584 10586 10587 10588 10590 10591 10593 10594 10596 10597 10599 10600 10603 10605 10607 10609 10610 10611 10612 10613 10614 10616 10618 10620 10623 10626 10628 10630 10631 10633 10635 10635 10636 10638 10640 10643 10645 10647 10649 10651 10653 10655 10657 10659 10661 10663 10664 10666 10668 10669 10671 10673 10674 10675 10673 10673 10675 10676 10678 10679 10680 10682 10683 10683 10684 10685 10686 10687 10687 10688 10689 10689 10690 10691 10691 10691 10692 10693 10694 10695 10696 10697
10576 10578 10579 10580 10582 10583 10584 10586 10588 10589 10591 10592 10593 10594 10596 10598 10600 10602 10604 10606 10607 10608 10609 10610 10611 10613 10615 10617 10619 10622 10624 10625 10627 10630 10631 10631 10632 10634 10637 10639 10641 10643 10646 10648 10649 10651 10653 10655 10657 10659 10661 10662 10663 10665 10667 10668 10670 10668 10668 10671 10672 10673 10675 10676 10677 10678 10678 10680 10681 10682 10683 10683 10684 10685 10686 10686 10687 10687 10688 10688 10689 10689 10690 10691 10692
10571 10572 10574 10575 10577 10578 10580 10581 10583 10585 10586 10588 10589 10590 10592 10593 10595 10597 10599 10601 10603 10604 10605 10606 10607 10608 10610 10612 10614 10616 10618 10619 10621 10623 10625 10626 10627 10628 10631 10633 10635 10637 10639 10642 10643 10645 10647 10649 10651 10654 10656 10656 10658 10659 10660 10662 10665 10664 10664 10666 10667 10669 10671 10671 10672 10673 10674 10675 10676 10678 10678 10679 10680 10680 10681 10682 10682 10683 10684 10684 10685 10685 10685 10686 10687
10566 10567 10568 10570 10571 10573 10574 10576 10577 10579 10581 10583 10584 10586 10587 10589 10590 10591 10593 10595 10597 10599 10600 10602 10603 10604 10605 10607 10609 10610 10612 10614 10615 10616 10618 10620 10622 10623 10624 10626 10628 10630 10633 10635 10637 10639 10641 10643 10645 10648 10649 10650 10652 10653 10653 10657 10660 10658 10658 10661 10663 10664 10666 10666 10666 10668 10669 10671 10672 10673 10674 10675 10675 10676 10677 10678 10678 10679 10679 10680 10680 10680 10681 10682 10683
10561 10562 10563 10565 10566 10567 10569 10570 10572 10573 10575 10577 10578 10580 10582 10583 10585 10586 10587 10589 10590 10592 10594 10596 10598 10600 10601 10602 10603 10605 10606 10608 10609 10610 10611 10613 10615 10617 10619 10620 10622 10624 10626 10628 10630 10633 10634 10636 10639 10641 10642 10644 10645 10646 10648 10652 10653 10651 10652 10656 10657 10659 10661 10661 10661 10663 10665 10666 10666 10667 10668 10669 10670 10671 10672 10673 10674 10675 10675 10675 10676 10677 10677 10677 10678
10555 10556 10558 10559 10560 10562 10563 10564 10566 10568 10569 10570 10572 10574 10575 10577 10578 10580 10581 10583 10584 10586 10588 10590 10592 10593 10595 10596 10598 10599 10601 10602 10603 10605 10606 10607 10609 10611 10613 10614 10616 10617 10620 10622 10624 10626 10628 10629 10632 10633 10635 10636 10638 10640 10642 10645 10646 10645 10646 10649 10651 10654 10655 10654 10656 10658 10659 10660 10661 10662 10663 10664 10665 10666 10667 10668 10669 10670 10670 10671 10672 10673 10673 10673 10673
10549 10550 10552 10553 10554 10555 10557 10558 10560 10561 10563 10564 10566 10567 10569 10570 10572 10573 10575 10576 10578 10579 10581 10583 10585 10586 10588 10590 10591 10593 10594 10596 10597 10598 10600 10601 10602 10604 10606 10608 10610 10611 10613 10616 10618 10620 10621 10623 10625 10627 10628 10629 10631 10634 10636 10638 10638 10638 10640 10642 10645 10647 10647 10648 10650 10652 10653 10653 10655 10656 10657 10658 10659 10660 10661 10663 10664 10665 10665 10666 10666 10667 10668 10668 10669
10543 10544 10545 10546 10548 10549 10550 10551 10553 10554 10556 10558 10559 10561 10562 10564 10565 10567 10568 10570 10572 10573 10575 10576 10578 10579 10581 10582 10584 10586 10588 10589 10591 10592 10593 10595 10596 10597 10599 10601 10604 10605 10607 10609 10612 10614 10615 10616 10617 10620 10622 10623 10624 10627 10629 10631 10631 10631 10633 10636 10638 10639 10640 10641 10643 10645 10646 10647 10648 10649 10650 10651 10653 10654 10655 10657 10658 10659 10660 10660 10661 10661 10662 10662 10663
10536 10537 10538 10539 10540 10542 10543 10545 10546 10548 10549 10551 10552 10554 10556 10558 10559 10560 10562 10564 10566 10567 10569 10570 10571 10573 10574 10575 10577 10578 10580 10582 10583 10585 10586 10587 10589 10590 10592 10594 10596 10599 10601 10602 10604 10607 10609 10610 10610 10612 10614 10616 10618 10620 10622 10623 10624 10625 10627 10629 10631 10632 10633 10634 10636 10638 10639 10640 10640 10642 10643 10645 10647 10648 10649 10650 10651 10653 10653 10654 10654 10654 10655 10656 10657
10528 10530 10530 10531 10532 10534 10536 10538 10539 10541 10542 10544 10546 10547 10549 10551 10553 10554 10556 10557 10559 10561 10562 10564 10565 10566 10567 10569 10570 10571 10572 10574 10575 10576 10578 10579 10581 10582 10584 10586 10588 10590 10593 10595 10597 10599 10601 10604 10605 10605 10607 10609 10611 10613 10615 10616 10617 10618 10620 10622 10624 10624 10626 10627 10628 10630 10632 10632 10632 10634 10636 10638 10640 10641 10642 10643 10644 10645 10646 10647 10647 10647 10647 10648 10650
10520 10522 10523 10523 10524 10527 10529 10530 10531 10533 10534 10536 10538 10540 10542 10544 10545 10547 10548 10550 10552 10553 10555 10556 10557 10559 10560 10561 10562 10564 10565 10566 10567 10569 10570 10571 10573 10574 10575 10577 10579 10581 10584 10586 10589 10591 10592 10595 10598 10599 10600 10601 10603 10605 10608 10609 10609 10611 10612 10614 10616 10617 10618 10619 10620 10623 10624 10623 10624 10626 10629 10631 10632 10633 10634 10635 10636 10637 10638 10639 10640 10640 10640 10641 10642
10512 10514 10514 10515 10517 10519 10520 10522 10523 10524 10526 10528 10530 10532 10534 10535 10537 10538 10540 10541 10543 10545 10547 10548 10549 10550 10552 10553 10554 10556 10557 10559 10560 10561 10563 10564 10566 10567 10568 10569 10571 10572 10574 10577 10579 10582 10583 10585 10588 10591 10592 10593 10595 10597 10599 10601 10602 10603 10604 10606 10608 10609 10610 10611 10613 10615 10616 10615 10615 10618 10621 10623 10624 10625 10626 10627 10628 10629 10630 10631 10632 10633 10633 10634 10634
10507 10506 10506 10507 10509 10510 10512 10513 10514 10516 10518 10520 10522 10524 10525 10527 10528 10530 10531 10533 10535 10537 10538 10540 10541 10542 10543 10545 10546 10547 10549 10550 10552 10553 10555 10556 10558 10560 10561 10562 10563 10565 10566 10568 10570 10572 10574 10575 10578 10581 10583 10584 10586 10588 10589 10591 10593 10595 10596 10597 10599 10600 10601 10603 10604 10606 10608 10607 10607 10609 10612 10614 10616 10617 10617 10618 10620 10621 10622 10623 10624 10626 10626 10626 10627
10501 10499 10498 10498 10499 10501 10502 10504 10505 10507 10509 10511 10513 10514 10516 10517 10519 10521 10523 10525 10526 10528 10529 10531 10532 10533 10535 10536 10537 10539 10540 10542 10543 10545 10547 10548 10550 10552 10553 10555 10556 10557 10558 10560 10562 10564 10566 10567 10568 10571 10573 10575 10576 10578 10579 10582 10583 10585 10586 10588 10590 10591 10592 10594 10595 10597 10599 10599 10598 10600 10602 10604 10606 10607 10607 10609 10611 10612 10613 10615 10616 10617 10618 10619 10619
10493 10492 10490 10490 10490 10492 10494 10495 10497 10499 10501 10503 10504 10506 10507 10507 10510 10513 10514 10516 10517 10518 10520 10521 10522 10524 10526 10527 10528 10530 10532 10533 10535 10537 10539 10540 10542 10544 10546 10547 10548 10549 10550 10552 10554 10556 10557 10559 10560 10561 10563 10565 10566 10567 10569 10572 10573 10574 10577 10579 10580 10581 10583 10585 10586 10587 10589 10591 10590 10591 10592 10593 10595 10596 10597 10598 10601 10602 10604 10607 10608 10609 10610 10610 10611
10483 10484 10483 10482 10482 10483 10485 10487 10489 10491 10492 10493 10494 10495 10496 10497 10500 10504 10505 10506 10508 10509 10510 10512 10513 10514 10516 10518 10519 10521 10523 10525 10527 10529 10530 10533 10534 10536 10537 10539 10540 10541 10542 10543 10544 10547 10549 10551 10552 10552 10553 10555 10556 10557 10558 10561 10563 10565 10567 10569 10570 10571 10573 10575 10575 10576 10579 10581 10582 10582 10583 10584 10585 10586 10587 10588 10590 10592 10595 10597 10598 10600 10601 10602 10603
10472 10474 10474 10474 10474 10476 10477 10479 10481 10481 10481 10482 10483 10484 10485 10487 10491 10494 10495 10496 10498 10499 10500 10502 10504 10505 10507 10509 10510 10512 10514 10516 10518 10520 10522 10524 10526 10527 10529 10530 10531 10532 10533 10534 10535 10537 10539 10541 10542 10543 10544 10545 10545 10546 10548 10551 10553 10555 10557 10559 10560 10560 10562 10564 10565 10565 10568 10571 10572 10573 10574 10574 10575 10576 10577 10578 10580 10582 10585 10587 10589 10591 10591 10592 10595
10462 10463 10465 10465 10466 10469 10471 10470 10471 10472 10471 10472 10471 10470 10472 10476 10481 10484 10485 10486 10488 10489 10491 10492 10494 10495 10497 10499 10501 10502 10504 10507 10509 10511 10514 10516 10517 10518 10520 10521 10523 10523 10524 10525 10526 10527 10529 10531 10532 10533 10535 10535 10534 10535 10538 10540 10543 10545 10546 10548 10549 10549 10551 10553 10554 10554 10556 10560 10562 10563 10563 10563 10565 10567 10569 10570 10571 10573 10575 10577 10580 10581 10581 10582 10585
10454 10454 10456 10456 10457 10462 10464 10462 10462 10463 10463 10461 10459 10458 10462 10466 10471 10473 10474 10477 10479 10480 10481 10482 10483 10484 10486 10488 10490 10492 10494 10497 10500 10502 10504 10507 10508 10509 10511 10512 10514 10515 10516 10516 10517 10518 10519 10520 10521 10522 10524 10524 10523 10524 10528 10530 10532 10534 10535 10537 10538 10539 10540 10542 10543 10542 10544 10548 10552 10553 10552 10552 10555 10559 10560 10561 10562 10564 10565 10567 10570 10571 10570 10572 10577
10445 10446 10447 10448 10448 10452 10455 10454 10454 10455 10456 10453 10449 10449 10453 10457 10460 10462 10464 10467 10468 10469 10470 10471 10471 10473 10475 10477 10479 10482 10484 10486 10489 10492 10494 10496 10498 10500 10501 10503 10504 10506 10507 10508 10508 10508 10509 10510 10511 10511 10512 10513 10514 10515 10516 10518 10520 10523 10525 10525 10527 10528 10529 10530 10532 10532 10532 10535 10540 10542 10542 10542 10544 10548 10550 10551 10552 10554 10556 10558 10560 10561 10561 10562 10566
10435 10436 10437 10438 10438 10441 10444 10445 10445 10448 10449 10444 10440 10442 10444 10447 10450 10451 10453 10456 10456 10455 10457 10459 10459 10461 10464 10466 10468 10471 10474 10476 10478 10481 10483 10485 10486 10489 10491 10492 10493 10495 10496 10497 10497 10497 10498 10499 10500 10500 10500 10502 10505 10505 10504 10505 10508 10511 10513 10515 10515 10517 10518 10519 10521 10521 10521 10523 10526 10530 10533 10532 10532 10536 10539 10539 10540 10542 10545 10549 10551 10552 10551 10551 10553
10423 10424 10425 10427 10427 10429 10433 10434 10435 10441 10441 10433 10430 10435 10436 10438 10439 10439 10441 10445 10443 10442 10445 10446 10447 10449 10452 10454 10457 10459 10462 10466 10468 10470 10471 10472 10474 10477 10479 10480 10482 10483 10484 10485 10486 10486 10487 10487 10489 10490 10489 10491 10494 10494 10493 10494 10496 10498 10500 10503 10504 10505 10507 10509 10510 10510 10510 10511 10513 10518 10523 10522 10518 10523 10527 10526 10526 10528 10533 10539 10543 10543 10542 10541 10540
10412 10412 10413 10415 10416 10418 10421 10421 10425 10432 10429 10421 10422 10427 10428 10429 10430 10428 10430 10432 10431 10431 10433 10435 10435 10437 10439 10442 10445 10447 10450 10454 10457 10458 10458 10458 10461 10465 10468 10469 10470 10471 10472 10473 10473 10474 10475 10476 10478 10480 10480 10480 10481 10482 10482 10482 10484 10486 10487 10490 10492 10494 10496 10498 10498 10499 10500 10500 10501 10505 10511 10510 10505 10509 10514 10513 10513 10515 10520 10528 10533 10532 10532 10532 10529
10400 10401 10401 10403 10405 10407 10408 10410 10415 10420 10416 10412 10415 10419 10419 10420 10419 10417 10418 10420 10419 10420 10422 10424 10425 10425 10427 10430 10432 10434 10437 10440 10443 10445 10444 10444 10448 10453 10456 10458 10458 10458 10459 10459 10460 10461 10463 10465 10467 10469 10470 10469 10468 10469 10470 10470 10472 10473 10475 10478 10479 10480 10483 10486 10488 10489 10489 10489 10489 10491 10498 10498 10493 10494 10498 10499 10501 10503 10506 10514 10521 10521 10522 10522 10519
10387 10389 10389 10390 10393 10396 10397 10399 10404 10405 10403 10404 10408 10410 10409 10410 10408 10406 10406 10407 10408 10409 10411 10412 10414 10415 10417 10419 10419 10420 10422 10424 10429 10432 10431 10431 10435 10439 10443 10444 10444 10444 10445 10445 10445 10448 10451 10453 10455 10456 10457 10457 10455 10456 10457 10458 10460 10460 10462 10467 10467 10466 10469 10475 10477 10478 10477 10477 10476 10476 10482 10485 10482 10480 10483 10485 10487 10490 10491 10498 10507 10510 10511 10511 10508
10374 10376 10378 10378 10380 10384 10386 10388 10391 10392 10393 10396 10398 10399 10399 10398 10396 10394 10394 10395 10396 10398 10399 10401 10403 10404 10406 10407 10406 10407 10409 10412 10416 10418 10417 10417 10421 10425 10428 10430 10431 10431 10431 10431 10433 10436 10439 10440 10442 10443 10443 10443 10443 10444 10444 10445 10446 10447 10450 10455 10454 10453 10458 10462 10464 10466 10466 10466 10464 10461 10464 10470 10469 10468 10470 10471 10474 10476 10475 10480 10491 10499 10501 10501 10496
10361 10363 10366 10367 10368 10370 10373 10376 10379 10380 10382 10385 10386 10386 10387 10385 10384 10382 10382 10382 10384 10387 10390 10391 10391 10392 10393 10393 10395 10396 10398 10400 10402 10403 10403 10405 10408 10410 10412 10415 10417 10417 10416 10417 10420 10423 10425 10427 10428 10429 10429 10429 10429 10430 10431 10432 10432 10433 10437 10441 10442 10442 10446 10449 10449 10452 10454 10454 10451 10447 10449 10454 10454 10455 10457 10457 10460 10463 10462 10463 10474 10485 10490 10489 10482